Flag for United Kingdom Weather past 2 weeks in Perth, Scotland, United Kingdom

Now
60 °F

Cool.


Feels Like: 60 °F
Forecast: 52 / 62 °F
Wind: 6 mph from East

Location: Strathallan

Current Time: Sep 18, 2014 at 1:40:33 PM

Latest Report: Sep 18, 2014 at 12:00 PM


Visibility: 9 mi

Pressure: 29.96 "Hg

Humidity: 93%

Dew point: 58 °F

Location of PerthLocation

Historic Weather in Perth — Graph

°F

Perth temperature yesterday

Maximum temperature yesterday: 62 °F (at 3:00 PM)
Minimum temperature yesterday: 54 °F (at 8:00 AM)
Average temperature yesterday: 58 °F

Past Weeks' High & Low Weather Summary

 TemperatureHumidityPressure
High69 °F (Sep 13, 3:00 PM)99% (Sep 13, 6:00 AM)30.43 "Hg (Sep 13, 6:00 AM)
Low40 °F (Sep 8, 7:00 AM)52% (Sep 8, 2:00 PM)29.95 "Hg (Sep 6, 4:00 PM)
Average56 °F86%30.16 "Hg
* Reported Sep 3 12:00 Noon — Sep 18 12:00 Noon, Perth, Weather by CustomWeather, © 2014

Note: Actual official high and low records may vary slightly from our data, if they occured in-between our weather recording intervals... More about our weather records

Advertising

Perth weather history for previous 24 hours

 ConditionsComfort  
Time TempWeatherWind HumidityBarometerVisibility
12:00 PM
Sep 18
60 °FCool.6 mph93%29.96 "Hg9 mi
10:00 AM58 °FFog.5 mph99%29.97 "Hg2 mi
9:00 AM58 °FFog.5 mph99%29.96 "Hg1 mi
8:00 AM58 °FDrizzle. Cloudy.5 mph98%29.96 "Hg1 mi
7:00 AM58 °FDrizzle. Cloudy.3 mph99%29.96 "Hg1 mi
6:00 AM58 °FDrizzle. Overcast.3 mph99%29.95 "Hg1 mi
5:00 AM58 °FDuststorm.2 mph98%29.95 "Hg0 mi
4:00 AM58 °FDuststorm.3 mph98%29.96 "Hg1 mi
3:00 AM58 °FCool.2 mph98%29.96 "Hg1 mi
2:00 AM58 °FFog.1 mph97%29.97 "Hg1 mi
1:00 AM59 °FFog.1 mph96%29.99 "Hg1 mi
12:00 AM59 °FFog.2 mph95%30.00 "Hg2 mi
11:00 PM
Sep 17
59 °FSmoke.1 mph94%30.00 "Hg3 mi
10:00 PM59 °FSmoke.2 mph92%30.00 "Hg4 mi
9:00 PM59 °FSmoke.2 mph92%30.00 "Hg6 mi
8:00 PM60 °FCool.3 mph90%29.99 "Hg6 mi
7:00 PM60 °FCool.2 mph88%29.99 "Hg9 mi
6:00 PM61 °FCool.2 mph85%29.99 "Hg9 mi
5:00 PM61 °FCool.3 mph84%30.00 "Hg8 mi
4:00 PM61 °FCool.3 mph84%30.00 "Hg8 mi
3:00 PM62 °FCool.2 mph77%30.01 "Hg9 mi
1:00 PM60 °FCool.5 mph81%30.03 "Hg10 mi
Weather by CustomWeather, © 2014

See weather overviewHow to use our weather pages